Pagrindinis puslapis
METAR-TAF:

METAR-TAF

Oro uostai :

Gage, Oklahoma, Jungtinės Amerikos Valstijos

platuma: 36-17-48N, ilguma: 099-46-08W, Aukštis: 677 m

Dabartinis oras

Ataskaita buvo paskelbta 21 minutes, ne 04:53 UTC
Vėjas 10 kt iš Pietų/Pietryčių
Temperatūra 14°C
Drėgmė 72%
Slėgis 1022 hPa
Matomumas: 16.1 km
Giedras dangus

METAR: KGAG 140453Z AUTO 16010KT 10SM CLR 14/09 A3019 RMK AO2 SLP210 T01390094

Laikas: 00:14 (05:14 UTC)


TAF: trūkstamas

Orai ataskaitas ir orų prognozės (METAR, TAF).

turimą stotys yra geltonos ir raudonos taškus žemėlapyje.

Perkelti pele per norėdami pamatyti stoties vardą.

Tada spustelėkite, norėdami matyti oro stebėjimo ir prognozės.

Norėdami pakeisti žemėlapį: spustelėkite ant žalios mygtukų su juodo kryžiaus žemyn,; žalią mygtuką su brūkšneliu, jei norite nutolinti; arba žalių rodyklių gretimoms žemėlapius.


METAR-TAF: